"datetime","# probes","# resolvers","can_ipv6","can_ipv6_prbs","can_tcp","can_tcp_prbs","can_tcp6","can_tcp6_prbs","does_ecs","does_ecs_prbs","does_flagday","does_flagday_prbs","does_rov4","does_rov4_prbs","does_rov6","does_rov6_prbs","does_qnamemin","doesnt_qnamemin","does_qnamemin_prbs","doesnt_qnamemin_prbs","does_nxdomain","doesnt_nxdomain","does_nxdomain_prbs","doesnt_nxdomain_prbs","has_ta_19036","hasnt_ta_19036","has_ta_19036_prbs","hasnt_ta_19036_prbs","has_ta_20326","hasnt_ta_20326","has_ta_20326_prbs","hasnt_ta_20326_prbs","can_rsamd5","cannot_rsamd5","broken_rsamd5","can_rsamd5_prbs","cannot_rsamd5_prbs","broken_rsamd5_prbs","can_dsa","cannot_dsa","broken_dsa","can_dsa_prbs","cannot_dsa_prbs","broken_dsa_prbs","can_rsasha1","cannot_rsasha1","broken_rsasha1","can_rsasha1_prbs","cannot_rsasha1_prbs","broken_rsasha1_prbs","can_dsansec3","cannot_dsansec3","broken_dsansec3","can_dsansec3_prbs","cannot_dsansec3_prbs","broken_dsansec3_prbs","can_rsansec3","cannot_rsansec3","broken_rsansec3","can_rsansec3_prbs","cannot_rsansec3_prbs","broken_rsansec3_prbs","can_rsasha256","cannot_rsasha256","broken_rsasha256","can_rsasha256_prbs","cannot_rsasha256_prbs","broken_rsasha256_prbs","can_rsasha512","cannot_rsasha512","broken_rsasha512","can_rsasha512_prbs","cannot_rsasha512_prbs","broken_rsasha512_prbs","can_eccgost","cannot_eccgost","broken_eccgost","can_eccgost_prbs","cannot_eccgost_prbs","broken_eccgost_prbs","can_ecdsa256","cannot_ecdsa256","broken_ecdsa256","can_ecdsa256_prbs","cannot_ecdsa256_prbs","broken_ecdsa256_prbs","can_ecdsa384","cannot_ecdsa384","broken_ecdsa384","can_ecdsa384_prbs","cannot_ecdsa384_prbs","broken_ecdsa384_prbs","can_ed25519","cannot_ed25519","broken_ed25519","can_ed25519_prbs","cannot_ed25519_prbs","broken_ed25519_prbs","can_ed448","cannot_ed448","broken_ed448","can_ed448_prbs","cannot_ed448_prbs","broken_ed448_prbs","can_gost","cannot_gost","broken_gost","can_gost_prbs","cannot_gost_prbs","broken_gost_prbs","can_sha384","cannot_sha384","broken_sha384","can_sha384_prbs","cannot_sha384_prbs","broken_sha384_prbs","is_internal","is_forwarding","is_external","is_internal_prbs","is_forwarding_prbs","is_external_prbs"
2017-06-20T23:59:58Z,110,175,155,100,173,109,152,97,93,64,0,0,0,0,0,0,2,173,1,109,0,173,0,109,0,0,0,0,0,0,0,0,44,41,90,32,44,58,84,91,0,58,68,0,174,1,0,110,20,0,85,90,0,59,67,0,175,0,0,110,20,0,175,0,0,110,19,0,175,0,0,110,20,0,42,130,3,29,90,2,167,6,2,106,24,1,167,6,2,106,25,1,0,172,3,0,108,2,0,170,5,0,107,3,130,41,4,81,47,3,169,6,0,107,24,0,65,31,79,55,29,49
2017-06-21T23:59:59Z,113,182,161,103,180,112,157,100,94,64,0,0,0,0,0,0,2,180,1,112,0,180,0,112,0,0,0,0,0,0,0,0,46,46,90,33,47,58,87,94,1,59,70,1,181,1,0,112,21,0,90,91,1,62,67,1,182,0,0,113,20,0,181,1,0,113,21,0,182,0,0,113,20,0,44,135,3,30,92,2,173,7,2,108,26,1,173,7,2,108,26,1,0,179,3,0,111,2,0,178,4,0,111,3,132,46,4,82,50,3,175,7,0,110,26,0,72,31,79,58,29,50
2017-06-22T23:59:58Z,113,181,162,104,179,112,158,100,92,61,0,0,0,0,0,0,2,179,1,112,0,179,0,112,0,0,0,0,0,0,0,0,44,48,89,31,48,57,87,93,1,60,69,1,180,1,0,112,21,0,89,92,0,62,67,0,181,0,0,113,20,0,181,0,0,113,20,0,181,0,0,113,20,0,42,135,4,30,92,3,172,7,2,109,26,1,173,6,2,109,25,1,0,178,3,0,111,2,0,178,3,0,111,2,132,45,4,82,50,3,174,7,0,110,26,0,72,30,79,60,28,49
2017-06-23T23:59:59Z,116,183,164,107,179,115,159,102,92,62,0,0,0,0,0,0,2,181,1,115,0,181,0,115,0,0,0,0,0,0,0,0,45,48,90,32,51,58,89,94,0,61,71,0,179,4,0,112,24,0,90,93,0,63,69,0,183,0,0,116,22,0,181,2,0,114,22,0,180,3,0,113,23,0,45,135,3,31,94,2,171,10,2,108,30,1,171,10,2,108,29,1,0,179,4,0,114,3,0,180,3,0,114,2,132,47,4,82,53,3,174,9,0,110,28,0,73,31,79,62,30,49
2017-06-24T23:59:59Z,110,175,157,102,173,109,153,98,89,61,0,0,0,0,0,0,0,175,0,110,0,173,0,109,0,0,0,0,0,0,0,0,44,43,88,31,44,57,86,89,0,59,67,0,175,0,0,110,19,0,90,85,0,62,64,0,175,0,0,110,20,0,175,0,0,110,19,0,175,0,0,110,19,0,44,128,3,30,89,2,167,6,2,106,24,1,167,6,2,106,24,1,0,170,5,0,107,3,1,171,3,1,108,2,129,41,5,81,47,4,169,6,0,107,25,0,68,30,77,57,28,48
2017-06-25T23:59:59Z,113,182,164,105,180,112,158,100,92,62,0,0,0,0,0,0,2,180,1,112,0,180,0,112,0,0,0,0,0,0,0,0,47,44,91,34,45,58,90,91,1,62,67,1,182,0,0,113,19,0,91,91,0,62,67,0,182,0,0,113,19,0,182,0,0,113,19,0,181,1,0,113,20,0,44,133,5,30,91,3,172,8,2,108,25,1,172,8,2,108,25,1,1,176,5,1,110,3,0,177,5,0,110,3,130,46,6,81,49,4,173,9,0,109,26,0,73,32,77,60,28,48
2017-06-26T23:59:59Z,116,185,166,107,182,115,160,102,93,62,0,0,0,0,0,0,2,183,1,115,0,185,0,116,0,0,0,0,0,0,0,0,45,49,91,32,50,58,92,93,0,63,70,0,182,3,0,114,24,0,94,91,0,65,68,0,185,0,0,116,21,0,184,1,0,116,22,0,185,0,0,116,21,0,43,136,6,31,93,4,176,7,2,111,27,1,176,7,2,111,27,1,0,180,5,0,113,3,0,179,6,0,113,4,132,47,6,82,52,4,177,8,0,112,28,0,75,31,79,62,28,49
2017-06-27T23:59:58Z,118,187,167,109,185,117,161,104,97,64,0,0,0,0,0,0,2,185,1,117,0,185,0,117,0,0,0,0,0,0,0,0,49,46,92,36,52,58,92,94,1,65,71,1,186,1,0,117,23,0,95,92,0,66,70,0,187,0,0,118,24,0,186,1,0,117,25,0,185,2,0,116,24,0,45,136,6,32,95,4,180,5,2,114,27,1,180,5,2,114,27,1,0,182,5,0,115,3,0,182,5,0,115,3,134,47,6,83,54,4,180,7,0,114,28,0,75,32,80,63,31,49
2017-06-28T23:59:58Z,118,187,167,109,185,117,163,105,101,69,0,0,0,0,0,0,2,185,1,117,0,185,0,117,0,0,0,0,0,0,0,0,46,47,94,33,51,60,91,95,1,64,72,1,186,1,0,117,23,0,91,94,2,64,71,1,187,0,0,118,23,0,185,2,0,117,23,0,187,0,0,118,23,0,45,136,6,32,95,4,179,6,2,114,27,1,179,6,2,114,27,1,0,181,6,0,115,4,0,182,5,0,115,3,134,47,6,84,54,4,181,6,0,115,28,0,74,32,81,63,32,50
2017-06-29T23:59:59Z,120,192,172,111,190,119,167,107,98,67,0,0,0,0,0,0,2,190,1,119,0,192,0,120,0,0,0,0,0,0,0,0,49,46,97,36,51,63,93,99,0,64,75,0,191,1,0,120,23,0,94,98,0,65,74,0,192,0,0,120,22,0,189,2,1,119,23,1,192,0,0,120,22,0,44,142,6,31,99,4,179,11,2,114,31,1,180,10,2,114,30,1,0,185,7,0,116,4,0,186,6,0,117,4,139,47,6,87,53,4,183,9,0,116,29,0,75,34,83,62,32,52
2017-06-30T23:59:58Z,119,187,168,110,185,118,160,105,99,67,0,0,0,0,0,0,2,185,1,118,0,185,0,118,0,0,0,0,0,0,0,0,47,44,96,35,51,62,88,99,0,61,75,0,183,4,0,116,26,0,89,98,0,62,74,0,187,0,0,119,22,0,183,2,2,117,23,2,187,0,0,119,22,0,44,138,5,30,98,3,176,9,2,113,30,1,176,9,2,113,30,1,0,181,6,0,116,4,0,181,6,0,116,4,136,45,6,86,54,4,178,9,0,114,30,0,70,34,83,60,32,52
2017-07-01T23:59:59Z,116,183,164,107,181,115,159,103,99,68,0,0,0,0,0,0,0,183,0,116,0,183,0,116,0,0,0,0,0,0,0,0,47,41,95,35,46,61,91,92,0,63,70,0,183,0,0,116,21,0,91,92,0,63,70,0,183,0,0,116,21,0,180,3,0,114,23,0,183,0,0,116,21,0,42,135,6,30,95,4,174,7,2,111,27,1,174,7,2,111,27,1,0,178,5,0,113,3,0,176,7,0,112,4,135,42,6,85,50,4,177,6,0,113,26,0,69,33,81,59,30,51
2017-07-02T23:59:59Z,117,184,165,108,182,116,160,104,98,68,0,0,0,0,0,0,2,182,1,116,0,184,0,117,0,0,0,0,0,0,0,0,47,43,94,35,49,61,88,96,0,61,73,0,183,1,0,116,23,0,89,94,1,62,72,1,184,0,0,117,22,0,184,0,0,117,22,0,184,0,0,117,22,0,40,137,7,28,97,4,177,5,2,113,27,1,177,5,2,113,27,1,0,179,5,0,114,3,1,177,6,1,114,4,134,44,6,84,52,4,178,6,0,114,27,0,71,32,81,60,31,51
2017-07-03T23:59:59Z,120,191,171,111,189,119,164,107,102,69,0,0,0,0,0,0,2,189,1,119,0,189,0,119,0,0,0,0,0,0,0,0,47,50,94,35,52,61,96,95,0,66,73,0,190,1,0,119,23,0,95,96,0,66,73,0,191,0,0,120,22,0,188,3,0,117,24,0,190,1,0,120,23,0,43,141,7,29,100,4,179,9,3,114,30,2,181,8,2,114,29,1,0,186,5,0,117,3,1,185,5,1,117,3,136,49,6,84,55,4,183,8,0,116,29,0,74,36,81,61,33,51
2017-07-04T23:59:59Z,120,191,171,111,189,119,163,106,95,66,0,0,0,0,0,0,2,189,1,119,0,191,0,120,0,0,0,0,0,0,0,0,48,49,94,36,52,61,95,96,0,65,73,0,186,5,0,117,25,0,96,95,0,66,72,0,191,0,0,120,21,0,185,6,0,116,25,0,189,2,0,119,23,0,45,141,5,30,99,3,179,10,2,113,29,1,179,10,2,113,29,1,0,185,6,0,117,4,0,185,6,0,117,4,133,52,6,82,56,4,181,10,0,114,29,0,75,36,80,62,33,50
2017-07-05T23:59:59Z,120,189,169,111,186,119,162,106,92,63,0,0,0,0,0,0,2,187,1,119,0,189,0,120,0,0,0,0,0,0,0,0,47,51,91,35,54,59,96,93,0,66,72,0,186,3,0,117,24,0,97,92,0,67,71,0,189,0,0,120,22,0,185,4,0,116,25,0,187,2,0,118,23,0,43,139,7,30,98,4,177,10,2,112,30,1,177,10,2,112,30,1,1,183,5,1,117,3,1,183,5,1,117,3,131,52,6,82,56,4,181,8,0,115,28,0,76,35,78,62,34,49
2017-07-06T23:59:58Z,117,187,167,108,184,116,156,104,93,64,0,0,0,0,0,0,2,185,1,116,0,185,0,116,0,0,0,0,0,0,0,0,47,51,89,35,50,58,95,91,1,64,71,1,186,1,0,116,21,0,98,89,0,66,69,0,187,0,0,117,21,0,186,1,0,117,21,0,187,0,0,117,21,0,45,136,6,30,95,4,177,8,2,111,27,1,177,8,2,111,27,1,0,182,5,0,114,3,1,180,6,1,113,4,130,51,6,81,53,4,180,7,0,113,26,0,78,33,76,62,31,48
2017-07-07T23:59:59Z,116,187,166,107,184,115,161,104,90,64,0,0,0,0,0,0,2,185,1,115,0,184,0,115,0,0,0,0,0,0,0,0,51,49,86,37,49,56,100,85,1,68,67,1,186,0,0,116,19,0,100,86,0,67,67,0,187,0,0,116,19,0,187,0,0,116,19,0,187,0,0,116,19,0,47,135,5,32,94,3,177,8,2,112,24,1,177,8,2,112,24,1,2,180,5,2,113,3,1,181,5,1,113,3,129,51,6,81,51,4,178,8,0,113,24,0,79,33,74,63,31,47
2017-07-08T23:59:59Z,117,188,168,108,186,116,163,105,92,62,0,0,0,0,0,0,2,186,1,116,0,188,0,117,0,0,0,0,0,0,0,0,50,51,87,36,51,56,95,93,0,64,72,0,184,4,0,113,23,0,99,89,0,66,69,0,188,0,0,117,21,0,186,2,0,115,21,0,187,1,0,116,21,0,46,137,5,31,95,3,174,12,2,109,28,1,174,12,2,109,28,1,1,182,5,1,114,3,2,181,5,1,114,3,129,52,7,81,52,5,177,11,0,111,27,0,79,33,76,63,31,48
2017-07-09T23:59:59Z,116,187,166,107,184,115,160,103,95,64,0,0,0,0,0,0,3,184,2,115,0,184,0,115,0,0,0,0,0,0,0,0,50,46,91,36,47,59,96,91,0,65,69,0,186,1,0,115,19,0,95,91,1,64,69,1,187,0,0,116,18,0,187,0,0,116,18,0,187,0,0,116,18,0,41,139,7,29,95,5,179,6,2,113,22,1,179,6,2,113,22,1,0,181,6,0,113,4,0,181,6,0,113,4,129,51,6,81,50,4,178,8,0,113,23,0,78,32,77,63,28,48
2017-07-10T23:59:59Z,120,192,172,111,190,119,167,107,95,64,0,0,0,0,0,0,2,190,2,119,0,192,0,120,0,0,0,0,0,0,0,0,49,48,95,36,50,61,96,96,0,66,72,0,191,1,0,119,21,0,98,94,0,66,71,0,192,0,0,120,21,0,192,0,0,120,21,0,192,0,0,120,21,0,43,144,5,30,98,3,180,10,2,114,27,1,180,10,2,114,27,1,0,187,5,0,117,3,0,185,7,0,116,4,132,54,6,83,54,4,180,12,0,114,28,0,79,32,81,64,29,50
2017-07-11T23:59:59Z,118,189,169,109,187,117,164,105,96,64,0,0,0,0,0,0,3,186,2,117,0,189,0,118,0,0,0,0,0,0,0,0,50,46,93,37,48,61,97,92,0,66,69,0,188,1,0,117,20,0,97,92,0,65,69,0,189,0,0,118,20,0,189,0,0,118,20,0,189,0,0,118,20,0,42,141,6,29,96,4,178,9,2,113,25,1,178,9,2,113,25,1,0,183,6,0,115,4,0,181,8,0,114,5,130,52,7,82,52,5,178,11,0,113,26,0,77,33,79,63,31,49
2017-07-12T23:59:59Z,115,184,164,106,182,114,160,103,93,64,0,0,0,0,0,0,3,181,2,114,0,182,0,114,0,0,0,0,0,0,0,0,47,48,89,34,49,59,92,92,0,62,70,0,182,2,0,113,21,0,94,89,1,63,68,1,184,0,0,115,20,0,184,0,0,115,20,0,184,0,0,115,20,0,42,135,7,29,93,5,171,11,2,108,27,1,172,10,2,109,26,1,0,177,7,0,112,5,0,178,6,0,112,4,125,52,7,79,52,5,174,10,0,110,26,0,75,33,76,60,30,48
2017-07-13T23:59:59Z,117,189,168,108,186,116,163,104,91,63,0,0,0,0,0,0,4,185,3,116,0,185,0,115,0,0,0,0,0,0,0,0,50,49,90,36,50,60,99,90,0,67,69,0,189,0,0,117,19,0,101,87,1,68,66,1,189,0,0,117,19,0,188,1,0,116,20,0,188,1,0,116,20,0,45,138,6,31,94,4,178,9,2,112,25,1,180,7,2,113,24,1,0,183,6,0,114,4,1,182,6,1,114,4,130,52,7,82,51,5,181,8,0,114,24,0,79,33,77,62,30,48
2017-07-14T23:59:59Z,116,186,165,107,184,115,160,103,88,62,0,0,0,0,0,0,3,183,2,115,0,184,1,115,0,0,0,0,0,0,0,0,49,47,90,35,49,60,97,89,0,66,69,1,185,1,0,115,20,1,98,88,0,65,68,1,186,0,0,116,19,1,186,0,0,116,19,1,186,0,0,116,19,1,44,136,6,30,94,5,175,9,2,111,25,2,175,9,2,111,25,2,0,180,6,0,113,5,0,180,6,0,113,5,127,51,8,81,51,7,177,9,0,112,25,0,76,34,76,60,31,48
2017-07-15T23:59:59Z,117,187,166,108,185,116,161,104,89,61,0,0,0,0,0,0,3,184,2,116,0,185,0,116,0,0,0,0,0,0,0,0,50,49,88,36,49,59,99,88,0,67,68,0,186,1,0,116,20,0,100,87,0,67,67,0,187,0,0,117,19,0,187,0,0,117,19,0,187,0,0,117,19,0,43,136,8,30,94,5,176,9,2,112,25,1,176,9,2,112,25,1,0,181,6,0,114,4,0,181,6,0,114,4,127,52,8,80,52,6,178,9,0,113,25,0,79,32,76,63,29,48
2017-07-16T23:59:59Z,118,188,167,109,186,117,162,105,90,63,0,0,0,0,0,0,3,185,2,117,0,186,0,117,0,0,0,0,0,0,0,0,50,50,88,36,51,59,98,90,0,67,69,0,187,1,0,117,20,0,101,87,0,68,67,0,188,0,0,118,19,0,188,0,0,118,19,0,188,0,0,118,19,0,44,138,6,31,95,4,178,8,2,113,25,1,178,8,2,113,25,1,0,182,6,0,115,4,0,182,6,0,115,4,128,52,8,82,52,6,179,9,0,114,25,0,80,32,76,64,29,48
2017-07-17T23:59:59Z,120,195,175,112,193,119,169,108,97,67,0,0,0,0,0,0,3,192,2,119,0,193,0,119,0,0,0,0,0,0,0,0,50,49,96,36,51,63,99,96,0,66,72,0,194,1,0,119,21,0,99,95,1,66,71,1,195,0,0,120,20,0,195,0,0,120,20,0,195,0,0,120,20,0,40,149,6,28,100,4,183,10,2,114,27,1,183,10,2,114,27,1,1,186,8,1,116,5,0,189,6,0,117,4,131,55,9,82,54,6,185,10,0,115,27,0,79,33,83,63,31,51
2017-07-18T23:59:59Z,120,195,175,112,192,119,171,109,96,65,0,0,0,0,0,0,3,192,2,119,0,195,0,120,0,0,0,0,0,0,0,0,49,48,97,35,50,63,99,95,0,66,71,0,193,1,0,118,21,0,101,93,0,67,69,0,195,0,0,120,20,0,194,0,1,119,20,1,194,0,0,119,20,0,44,142,9,30,96,6,185,7,2,115,25,1,185,7,2,115,25,1,2,187,6,1,116,4,0,189,6,0,117,4,136,52,7,84,53,5,188,6,1,117,24,1,80,32,83,63,30,51
2017-07-19T23:59:59Z,122,197,177,114,195,121,173,111,96,64,0,0,0,0,0,0,2,195,2,121,0,197,0,122,0,0,0,0,0,0,0,0,48,54,94,34,54,61,98,98,0,66,74,0,192,4,0,118,24,0,101,95,0,67,72,0,197,0,0,122,21,0,192,4,1,118,24,1,193,3,0,119,23,0,47,144,6,31,99,4,184,10,2,115,28,1,182,12,2,114,29,1,0,191,6,0,119,4,1,191,5,1,119,3,135,56,6,84,57,4,189,7,1,118,26,1,79,35,83,63,32,51
2017-07-20T23:59:59Z,119,194,174,111,192,118,170,108,95,64,0,0,0,0,0,0,3,191,2,118,0,192,0,118,0,0,0,0,0,0,0,0,49,49,95,35,50,62,96,95,2,64,71,1,192,1,0,117,21,0,98,93,2,65,69,1,194,0,0,119,20,0,192,1,1,117,21,1,192,1,0,117,21,0,45,142,7,30,96,5,182,9,2,113,26,1,182,9,2,113,26,1,0,188,6,0,116,4,0,188,6,0,116,4,132,52,10,82,53,7,183,10,1,114,26,1,80,31,83,63,29,51
2017-07-21T23:59:59Z,120,196,177,112,194,119,172,108,94,63,0,0,0,0,0,0,3,193,2,119,0,196,0,120,0,0,0,0,0,0,0,0,47,53,95,33,51,62,97,98,0,64,72,0,193,2,0,117,22,0,100,95,0,66,69,0,196,0,0,120,20,0,193,2,1,117,22,1,193,2,0,117,22,0,45,144,7,30,96,5,182,11,2,112,28,1,181,12,2,112,29,1,0,190,6,0,117,4,0,189,7,0,117,5,133,56,7,82,55,5,184,11,1,113,28,1,82,31,83,64,29,51
2017-07-22T23:59:59Z,119,196,177,111,193,117,172,107,97,64,0,0,0,0,0,0,2,194,2,118,0,193,0,117,0,0,0,0,0,0,0,0,48,49,98,34,49,63,96,99,0,63,73,0,194,1,0,117,22,0,99,96,0,65,70,0,196,0,0,119,21,0,195,0,1,118,21,1,195,0,0,118,21,0,42,147,7,28,98,5,184,9,2,114,27,1,185,8,2,114,26,1,1,190,5,1,116,3,0,191,5,0,116,3,136,54,6,83,54,4,186,9,1,115,27,1,79,32,85,61,29,52
2017-07-23T23:59:59Z,117,190,171,109,188,116,167,106,98,65,0,0,0,0,0,0,3,187,3,115,0,188,0,116,0,0,0,0,0,0,0,0,47,48,94,33,48,61,92,95,2,62,71,1,188,1,0,115,21,0,96,92,1,64,69,1,190,0,0,117,21,0,189,0,1,116,20,1,188,1,0,115,22,0,42,142,6,28,96,4,178,9,2,111,26,1,178,9,2,111,27,1,1,184,5,1,114,3,0,185,5,0,114,3,132,52,6,81,53,4,181,8,1,113,25,1,75,32,83,60,28,51
2017-07-24T23:59:59Z,119,193,174,111,191,118,170,108,100,67,0,0,0,0,0,0,2,191,2,118,0,191,0,118,0,0,0,0,0,0,0,0,47,51,94,33,50,61,96,96,0,64,72,0,187,5,0,115,24,0,98,94,0,65,70,0,193,0,0,119,21,0,190,2,1,117,22,1,191,1,0,118,21,0,42,145,6,28,98,4,175,15,2,109,31,1,179,11,2,112,27,1,0,188,5,0,116,3,0,188,5,0,116,3,130,57,6,79,57,4,181,10,2,113,26,2,76,34,83,61,29,51
2017-07-25T23:59:59Z,118,193,175,110,191,117,171,107,100,66,0,0,0,0,0,0,3,190,2,117,0,193,0,118,0,0,0,0,0,0,0,0,46,49,96,32,47,63,94,97,0,62,71,0,188,3,0,116,21,0,97,94,0,64,68,0,193,0,0,118,20,0,190,1,1,116,20,1,188,3,0,115,21,0,44,141,8,29,95,6,180,9,2,112,25,1,180,9,2,112,25,1,0,187,6,0,115,4,0,187,6,0,115,4,132,54,7,81,53,5,185,6,1,115,24,1,75,35,83,59,31,51
2017-07-26T23:59:59Z,118,194,176,110,191,117,171,106,96,64,0,0,0,0,0,0,2,192,2,117,0,194,0,118,0,0,0,0,0,0,0,0,48,48,96,34,48,62,93,99,0,62,72,0,189,3,0,115,23,0,95,97,0,62,71,0,194,0,0,118,21,0,192,0,1,117,21,1,190,2,0,116,23,0,43,145,6,28,97,4,182,8,2,113,27,1,180,10,2,112,28,1,0,188,6,0,115,4,1,188,5,1,115,3,133,55,6,81,55,4,186,6,1,115,26,1,78,31,85,61,28,52
2017-07-27T23:59:59Z,119,194,176,111,191,117,172,108,99,66,0,0,0,0,0,0,2,192,2,118,0,191,0,117,0,0,0,0,0,0,0,0,48,47,98,34,50,63,95,98,0,64,72,0,192,1,0,118,23,0,96,97,0,64,71,0,194,0,0,119,23,0,193,1,0,118,22,0,192,1,0,118,23,0,39,150,5,26,101,3,183,8,2,114,29,1,183,8,2,114,29,1,2,187,5,1,115,3,0,187,7,0,115,4,132,56,6,81,57,4,186,7,0,116,28,0,77,31,86,61,28,53
2017-07-28T23:59:59Z,118,195,177,110,192,117,173,107,99,65,0,0,0,0,0,0,3,192,2,117,0,193,0,117,0,0,0,0,0,0,0,0,52,46,96,37,47,62,99,95,0,66,69,0,193,1,0,117,21,0,101,93,0,66,67,0,195,0,0,118,20,0,195,0,0,118,20,0,194,0,0,118,20,0,41,148,6,28,97,4,185,7,2,114,25,1,185,7,2,115,25,1,0,189,6,0,115,4,0,189,6,0,115,4,133,55,7,81,54,5,185,9,0,114,26,0,79,31,85,61,28,52
2017-07-29T23:59:59Z,116,191,174,109,189,115,170,106,93,62,0,0,0,0,0,0,2,189,2,115,0,191,0,116,0,0,0,0,0,0,0,0,50,49,91,35,49,59,94,96,0,63,69,0,189,1,0,116,22,0,95,93,2,63,67,1,191,0,0,116,21,0,188,3,0,115,23,0,187,2,1,114,22,1,41,147,3,27,97,2,181,7,2,112,26,1,181,7,2,112,26,1,0,187,4,0,114,3,0,187,4,0,114,3,130,56,5,79,55,4,184,6,0,114,25,0,77,31,83,60,29,51
2017-07-30T23:59:59Z,117,191,174,110,187,116,169,107,97,66,0,0,0,0,0,0,2,189,2,116,0,187,0,115,0,0,0,0,0,0,0,0,48,48,94,34,51,62,91,99,0,61,72,0,187,3,0,114,25,0,94,96,0,62,70,0,191,0,0,117,22,0,189,2,0,115,24,0,187,3,0,115,25,0,40,148,3,26,99,2,180,8,2,112,28,1,180,8,2,112,28,1,0,186,5,0,114,3,0,187,4,0,115,3,129,58,4,79,58,3,181,9,0,113,29,0,78,29,84,62,27,52
2017-07-31T23:59:59Z,118,193,176,111,191,117,170,107,99,66,0,0,0,0,0,0,1,192,1,118,0,191,0,117,0,0,0,0,0,0,0,0,50,47,95,36,49,62,93,99,0,62,71,0,187,5,0,115,24,0,94,98,0,62,70,0,193,0,0,118,20,0,191,2,0,116,22,0,190,2,0,116,22,0,38,151,4,26,99,3,183,7,2,114,25,1,183,7,2,114,25,1,0,189,4,0,116,3,1,188,4,1,116,3,130,56,7,80,55,5,182,10,0,113,27,0,77,31,85,60,29,52
2017-08-01T23:59:58Z,115,187,170,108,185,114,166,105,95,63,0,0,0,0,0,0,1,186,1,115,0,187,0,115,0,0,0,0,0,0,0,0,49,42,95,35,45,62,89,97,0,60,70,0,186,0,0,115,19,0,94,93,0,61,68,0,187,0,0,115,20,0,186,1,0,114,20,0,186,1,0,114,20,0,41,142,4,27,95,3,175,9,2,109,26,1,176,8,2,110,25,1,2,181,4,1,112,3,0,183,4,0,113,3,130,52,5,79,53,4,180,6,0,113,24,0,72,31,84,57,30,51
2017-08-02T23:59:59Z,114,186,169,107,184,113,165,104,93,62,0,0,0,0,0,0,0,186,1,114,0,182,1,112,0,0,0,0,0,0,0,0,49,43,93,34,46,60,90,93,2,61,68,2,184,1,0,113,21,1,94,92,0,63,67,0,186,0,0,114,21,0,185,1,0,113,21,0,185,1,0,113,21,0,39,144,3,26,96,3,176,7,2,110,25,2,176,7,2,110,26,1,2,181,3,1,111,2,0,183,3,0,112,2,130,52,4,79,53,3,179,6,0,112,23,1,71,31,84,56,30,51
2017-08-03T23:59:59Z,119,191,174,112,189,118,170,109,96,65,0,0,0,0,0,0,1,190,2,119,0,191,1,119,0,0,0,0,0,0,0,0,48,48,94,34,52,61,93,97,0,63,72,1,185,5,0,115,26,1,96,95,0,64,70,0,191,0,0,119,22,0,188,3,0,116,25,0,188,3,0,116,24,0,39,149,3,26,101,3,178,10,2,112,28,2,179,9,2,113,28,1,0,187,4,0,117,3,0,187,4,0,117,3,131,56,4,80,58,3,185,5,0,117,25,1,75,31,85,60,30,52
2017-08-04T23:59:58Z,115,188,171,108,186,114,167,105,97,65,0,0,0,0,0,0,1,187,1,115,0,186,0,114,0,0,0,0,0,0,0,0,48,46,93,34,46,61,94,93,0,63,67,0,187,0,0,115,19,0,97,91,0,63,66,0,188,0,0,115,19,0,187,1,0,114,20,0,186,2,0,114,21,0,40,143,5,27,95,4,176,9,2,110,26,1,176,9,2,110,26,1,0,184,4,0,113,3,0,182,6,0,112,4,129,54,5,79,53,4,180,7,0,112,24,0,74,31,83,57,30,51
2017-08-05T23:59:59Z,116,187,170,109,185,115,165,105,96,65,0,0,0,0,0,0,1,186,1,116,0,187,0,116,0,0,0,0,0,0,0,0,47,45,94,33,47,62,90,96,0,61,70,0,181,5,0,112,24,0,94,93,0,62,68,0,187,0,0,116,20,0,183,4,0,113,23,0,184,3,0,114,23,0,41,142,4,27,96,3,174,10,2,109,27,1,173,11,2,109,28,1,0,183,4,0,114,3,0,181,6,0,113,4,129,53,5,79,54,4,177,9,0,112,26,0,72,32,83,57,30,51
2017-08-06T23:59:59Z,116,188,172,110,186,115,168,107,95,65,0,0,0,0,0,0,2,186,2,115,0,188,0,116,0,0,0,0,0,0,0,0,47,45,95,33,47,63,96,91,0,64,67,0,187,0,0,116,19,0,96,91,1,63,67,1,188,0,0,116,20,0,187,1,0,116,21,0,186,2,0,115,20,0,41,143,4,27,96,3,176,9,2,111,26,1,178,7,2,112,24,1,0,184,4,0,114,3,2,182,4,1,113,3,132,51,5,81,52,4,183,4,0,115,22,0,72,32,84,57,29,52
2017-08-07T23:59:59Z,117,190,173,110,187,116,169,107,96,65,0,0,0,0,0,0,2,188,2,116,0,186,0,115,0,0,0,0,0,0,0,0,47,46,96,33,47,63,94,95,0,63,69,0,188,1,0,116,20,0,98,92,0,65,67,0,190,0,0,117,19,0,188,2,0,116,21,0,189,1,0,116,20,0,39,147,4,26,98,3,180,7,2,113,24,1,180,7,2,113,24,1,0,184,6,0,114,4,1,185,4,1,115,3,130,55,5,80,54,4,177,12,0,112,28,0,75,31,84,58,30,52
2017-08-08T23:59:58Z,117,191,174,110,189,116,170,107,95,66,0,0,0,0,0,0,2,189,2,116,0,191,0,117,0,0,0,0,0,0,0,0,47,47,96,33,47,63,94,96,0,63,69,0,190,0,0,117,19,0,98,93,0,64,67,0,191,0,0,117,19,0,191,0,0,117,19,0,189,2,0,116,20,0,42,145,4,27,97,3,179,9,2,112,25,1,179,9,2,112,25,1,0,187,4,0,115,3,0,187,4,0,115,3,131,54,6,80,54,5,182,8,0,114,23,0,75,32,84,58,29,52
2017-08-09T23:59:59Z,115,185,168,108,183,114,162,103,96,65,0,0,0,0,0,0,2,183,2,114,0,185,0,115,0,0,0,0,0,0,0,0,48,43,94,33,45,62,90,94,0,61,68,0,182,2,0,113,19,0,92,91,2,61,66,1,185,0,0,115,18,0,183,2,0,113,19,0,185,0,0,115,17,0,38,143,4,25,96,3,173,9,2,109,24,1,173,9,2,109,24,1,0,179,6,0,112,4,0,180,5,0,113,4,128,52,5,78,52,4,176,8,0,111,23,0,70,32,83,56,30,51
2017-08-10T23:59:58Z,117,192,175,110,190,116,170,106,95,64,0,0,0,0,0,0,2,190,2,116,0,192,0,117,0,0,0,0,0,0,0,0,48,48,96,33,45,64,94,97,0,62,70,0,190,1,0,116,18,0,99,93,0,64,67,0,192,0,0,117,17,0,192,0,0,117,17,0,189,3,0,116,19,0,40,148,4,26,97,3,180,9,2,113,23,1,180,9,2,113,23,1,0,188,4,0,115,3,0,188,4,0,115,3,129,58,5,79,54,4,180,11,0,111,25,0,76,32,84,59,29,52
2017-08-11T23:59:58Z,114,185,168,107,183,113,164,104,94,63,0,0,0,0,0,0,2,183,2,113,0,183,0,113,0,0,0,0,0,0,0,0,47,44,94,32,45,62,90,94,0,60,68,0,180,4,0,111,20,0,93,92,0,61,66,0,185,0,0,114,18,0,184,1,0,113,18,0,184,1,0,113,18,0,38,143,4,25,95,3,175,7,2,110,22,1,177,5,2,111,21,1,0,181,4,0,112,3,0,181,4,0,112,3,126,54,5,77,52,4,171,13,0,107,25,0,73,31,81,58,28,50
2017-08-12T23:59:59Z,116,190,173,109,188,115,169,106,97,65,0,0,0,0,0,0,2,188,2,115,0,188,0,115,0,0,0,0,0,0,0,0,49,46,95,34,45,62,95,94,0,64,67,0,189,0,0,116,17,0,96,94,0,62,67,0,190,0,0,116,17,0,189,1,0,115,18,0,189,1,0,115,18,0,37,149,4,24,98,3,177,10,2,110,24,1,176,11,2,110,25,1,0,185,5,0,114,4,0,186,4,0,114,3,128,57,5,78,53,4,176,13,0,109,24,0,76,33,81,59,29,50
2017-08-13T23:59:59Z,116,188,171,109,186,115,167,105,97,65,0,0,0,0,0,0,3,185,3,114,0,186,0,115,0,0,0,0,0,0,0,0,50,45,93,34,45,62,92,95,0,62,68,1,186,1,0,115,18,1,97,91,0,64,65,1,188,0,0,116,17,1,186,2,0,115,19,1,187,1,0,115,18,1,38,145,5,25,97,5,176,9,2,111,24,2,177,8,2,111,23,2,0,182,6,0,113,5,0,184,4,0,114,4,130,53,5,79,52,5,178,9,0,112,23,1,75,32,81,59,30,50
2017-08-14T23:59:59Z,119,191,174,112,189,118,170,108,101,67,0,0,0,0,0,0,2,189,2,118,0,191,0,119,0,0,0,0,0,0,0,0,49,42,100,34,47,67,92,95,3,63,71,3,189,0,1,118,21,2,96,95,0,64,70,1,191,0,0,119,22,1,189,2,0,117,23,1,189,2,0,117,22,1,40,147,4,27,100,4,179,9,2,114,27,2,178,9,3,113,27,3,0,185,6,0,116,5,0,187,4,0,117,4,133,53,5,82,55,5,180,10,0,114,26,1,72,35,84,59,32,53
2017-08-15T23:59:59Z,117,189,172,110,186,116,165,106,100,68,0,0,0,0,0,0,2,187,2,116,0,189,0,117,0,0,0,0,0,0,0,0,48,44,97,33,47,66,92,96,0,63,71,1,188,0,0,117,20,1,94,95,0,63,70,1,189,0,0,117,20,1,188,1,0,116,21,1,188,1,0,116,21,1,40,145,4,27,98,4,178,8,2,112,26,2,178,8,2,112,26,2,1,184,4,1,115,4,0,185,4,0,115,4,132,52,5,82,54,5,178,10,0,112,26,1,74,31,84,60,28,53
2017-08-16T23:59:59Z,120,191,174,113,189,119,168,109,103,69,0,0,0,0,0,0,2,189,2,118,0,191,0,120,0,0,0,0,0,0,0,0,51,42,98,35,48,66,90,100,0,63,73,1,187,3,0,118,24,1,93,98,0,63,73,1,191,0,0,120,23,1,190,1,0,119,23,1,190,1,0,119,24,1,39,148,4,26,101,4,179,9,2,115,28,2,179,9,2,115,29,2,0,187,4,0,117,4,0,187,4,0,117,4,133,53,5,82,57,5,181,9,0,116,28,1,71,36,84,61,31,53
2017-08-17T23:59:59Z,122,194,176,114,190,120,168,109,101,68,0,0,0,0,0,0,2,192,2,120,0,194,0,122,0,0,0,0,0,0,0,0,48,47,99,33,50,67,93,100,0,64,74,1,191,2,0,120,22,1,97,96,1,66,71,2,194,0,0,122,21,1,192,2,0,120,23,1,190,4,0,119,24,1,39,151,4,26,103,4,180,11,2,115,28,2,180,11,2,115,28,2,0,190,4,0,119,4,1,189,4,1,119,4,132,57,5,81,58,5,183,10,0,117,28,1,76,34,84,63,31,53